Time,TemperatureF,DewpointF,PressureIn,WindDirection,WindDirectionDegrees,WindSpeedMPH,WindSpeedGustMPH,Humidity,HourlyPrecipIn,Conditions,Clouds,dailyrainin,SoftwareType,DateUTC
2013-01-31 00:04:00,44.3,38.5,29.92,North,0,0.0,0.0,80,0.00,,,0.00,WUHU216HW,2013-01-31 08:04:00,
2013-01-31 00:09:00,44.1,38.3,29.92,North,0,0.0,0.0,80,0.00,,,0.00,WUHU216HW,2013-01-31 08:09:00,
2013-01-31 00:14:00,43.9,38.2,29.92,North,0,0.0,0.0,80,0.00,,,0.00,WUHU216HW,2013-01-31 08:14:00,
2013-01-31 00:19:00,44.1,38.6,29.92,North,0,0.0,0.0,81,0.00,,,0.00,WUHU216HW,2013-01-31 08:19:00,
2013-01-31 00:24:00,43.9,38.4,29.92,North,0,0.0,0.0,81,0.00,,,0.00,WUHU216HW,2013-01-31 08:24:00,
2013-01-31 00:29:00,43.9,38.4,29.92,North,0,0.0,0.0,81,0.00,,,0.00,WUHU216HW,2013-01-31 08:29:00,
2013-01-31 00:34:00,43.9,38.4,29.91,North,0,0.0,0.0,81,0.00,,,0.00,WUHU216HW,2013-01-31 08:34:00,
2013-01-31 00:39:00,43.9,38.4,29.91,North,0,0.0,0.0,81,0.00,,,0.00,WUHU216HW,2013-01-31 08:39:00,
2013-01-31 00:44:00,43.7,38.3,29.92,North,0,0.0,0.0,81,0.00,,,0.00,WUHU216HW,2013-01-31 08:44:00,
2013-01-31 00:50:00,43.7,38.3,29.92,North,0,0.0,0.0,81,0.00,,,0.00,WUHU216HW,2013-01-31 08:50:00,
2013-01-31 00:55:00,43.7,38.3,29.91,North,0,0.0,0.0,81,0.00,,,0.00,WUHU216HW,2013-01-31 08:55:00,
2013-01-31 01:00:00,43.7,38.3,29.91,North,0,0.0,0.0,81,0.00,,,0.00,WUHU216HW,2013-01-31 09:00:00,
2013-01-31 01:05:00,43.6,38.1,29.91,North,0,0.0,0.0,81,0.00,,,0.00,WUHU216HW,2013-01-31 09:05:00,
2013-01-31 01:10:00,43.6,38.1,29.91,North,0,0.0,0.0,81,0.00,,,0.00,WUHU216HW,2013-01-31 09:10:00,
2013-01-31 01:15:00,43.4,37.9,29.91,North,0,0.0,0.0,81,0.00,,,0.00,WUHU216HW,2013-01-31 09:15:00,
2013-01-31 01:20:00,43.2,37.7,29.91,North,0,0.0,0.0,81,0.00,,,0.00,WUHU216HW,2013-01-31 09:20:00,
2013-01-31 01:25:00,43.0,37.5,29.91,North,0,0.0,0.0,81,0.00,,,0.00,WUHU216HW,2013-01-31 09:25:00,
2013-01-31 01:30:00,42.8,37.4,29.91,North,0,0.0,0.0,81,0.00,,,0.00,WUHU216HW,2013-01-31 09:30:00,
2013-01-31 01:35:00,42.8,37.4,29.91,North,0,0.0,0.0,81,0.00,,,0.00,WUHU216HW,2013-01-31 09:35:00,
2013-01-31 01:40:00,42.7,37.5,29.91,North,0,0.0,0.0,82,0.00,,,0.00,WUHU216HW,2013-01-31 09:40:00,
2013-01-31 01:45:00,42.5,37.4,29.91,North,0,0.0,0.0,82,0.00,,,0.00,WUHU216HW,2013-01-31 09:45:00,
2013-01-31 01:50:00,42.3,37.2,29.91,North,0,0.0,0.0,82,0.00,,,0.00,WUHU216HW,2013-01-31 09:50:00,
2013-01-31 01:56:00,42.1,37.0,29.91,North,0,0.0,0.0,82,0.00,,,0.00,WUHU216HW,2013-01-31 09:56:00,
2013-01-31 02:01:00,42.1,37.0,29.91,North,0,0.0,0.0,82,0.00,,,0.00,WUHU216HW,2013-01-31 10:01:00,
2013-01-31 02:06:00,42.1,37.0,29.91,North,0,0.0,0.0,82,0.00,,,0.00,WUHU216HW,2013-01-31 10:06:00,
2013-01-31 02:11:00,42.1,37.3,29.91,North,0,0.0,0.0,83,0.00,,,0.00,WUHU216HW,2013-01-31 10:11:00,
2013-01-31 02:16:00,42.1,37.3,29.91,North,0,0.0,0.0,83,0.00,,,0.00,WUHU216HW,2013-01-31 10:16:00,
2013-01-31 02:21:00,42.1,37.3,29.91,North,0,0.0,0.0,83,0.00,,,0.00,WUHU216HW,2013-01-31 10:21:00,
2013-01-31 02:26:00,41.9,37.1,29.91,North,0,0.0,0.0,83,0.00,,,0.00,WUHU216HW,2013-01-31 10:26:00,
2013-01-31 02:31:00,41.8,36.9,29.91,North,0,0.0,0.0,83,0.00,,,0.00,WUHU216HW,2013-01-31 10:31:00,
2013-01-31 02:36:00,41.6,36.7,29.90,North,0,0.0,0.0,83,0.00,,,0.00,WUHU216HW,2013-01-31 10:36:00,
2013-01-31 02:41:00,41.6,36.7,29.90,North,0,0.0,0.0,83,0.00,,,0.00,WUHU216HW,2013-01-31 10:41:00,
2013-01-31 02:46:00,41.4,36.3,29.90,North,0,0.0,0.0,82,0.00,,,0.00,WUHU216HW,2013-01-31 10:46:00,
2013-01-31 02:51:00,41.4,36.3,29.90,North,0,0.0,0.0,82,0.00,,,0.00,WUHU216HW,2013-01-31 10:51:00,
2013-01-31 02:56:00,41.4,36.3,29.90,North,0,0.0,0.0,82,0.00,,,0.00,WUHU216HW,2013-01-31 10:56:00,
2013-01-31 03:01:00,41.2,36.1,29.90,North,0,0.0,0.0,82,0.00,,,0.00,WUHU216HW,2013-01-31 11:01:00,
2013-01-31 03:06:00,41.0,35.9,29.90,North,0,0.0,0.0,82,0.00,,,0.00,WUHU216HW,2013-01-31 11:06:00,
2013-01-31 03:12:00,41.0,35.9,29.90,North,0,0.0,0.0,82,0.00,,,0.00,WUHU216HW,2013-01-31 11:12:00,
2013-01-31 03:17:00,40.9,36.0,29.90,North,0,0.0,0.0,83,0.00,,,0.00,WUHU216HW,2013-01-31 11:17:00,
2013-01-31 03:22:00,40.7,35.8,29.90,North,0,0.0,0.0,83,0.00,,,0.00,WUHU216HW,2013-01-31 11:22:00,
2013-01-31 03:27:00,40.7,36.2,29.90,North,0,0.0,0.0,84,0.00,,,0.00,WUHU216HW,2013-01-31 11:27:00,
2013-01-31 03:32:00,40.7,36.2,29.90,North,0,0.0,0.0,84,0.00,,,0.00,WUHU216HW,2013-01-31 11:32:00,
2013-01-31 03:37:00,40.7,36.2,29.90,North,0,0.0,0.0,84,0.00,,,0.00,WUHU216HW,2013-01-31 11:37:00,
2013-01-31 03:42:00,40.7,36.2,29.90,North,0,0.0,0.0,84,0.00,,,0.00,WUHU216HW,2013-01-31 11:42:00,
2013-01-31 03:47:00,40.5,36.0,29.90,North,0,0.0,0.0,84,0.00,,,0.00,WUHU216HW,2013-01-31 11:47:00,
2013-01-31 03:52:00,40.3,35.8,29.90,North,0,0.0,0.0,84,0.00,,,0.00,WUHU216HW,2013-01-31 11:52:00,
2013-01-31 03:57:00,40.1,35.6,29.90,North,0,0.0,0.0,84,0.00,,,0.00,WUHU216HW,2013-01-31 11:57:00,
2013-01-31 04:02:00,40.0,35.5,29.91,North,0,0.0,0.0,84,0.00,,,0.00,WUHU216HW,2013-01-31 12:02:00,
2013-01-31 04:07:00,40.0,35.5,29.90,North,0,0.0,0.0,84,0.00,,,0.00,WUHU216HW,2013-01-31 12:07:00,
2013-01-31 04:13:00,40.0,35.5,29.90,North,0,0.0,0.0,84,0.00,,,0.00,WUHU216HW,2013-01-31 12:13:00,
2013-01-31 04:18:00,39.8,35.3,29.90,North,0,0.0,0.0,84,0.00,,,0.00,WUHU216HW,2013-01-31 12:18:00,
2013-01-31 04:23:00,39.6,35.2,29.90,North,0,0.0,0.0,84,0.00,,,0.00,WUHU216HW,2013-01-31 12:23:00,
2013-01-31 04:28:00,39.6,35.2,29.90,North,0,0.0,0.0,84,0.00,,,0.00,WUHU216HW,2013-01-31 12:28:00,
2013-01-31 04:33:00,39.4,35.0,29.90,North,0,0.0,0.0,84,0.00,,,0.00,WUHU216HW,2013-01-31 12:33:00,
2013-01-31 04:38:00,39.2,35.1,29.90,North,0,0.0,0.0,85,0.00,,,0.00,WUHU216HW,2013-01-31 12:38:00,
2013-01-31 04:43:00,39.2,35.1,29.90,North,0,0.0,0.0,85,0.00,,,0.00,WUHU216HW,2013-01-31 12:43:00,
2013-01-31 04:48:00,39.4,35.3,29.90,North,0,0.0,0.0,85,0.00,,,0.00,WUHU216HW,2013-01-31 12:48:00,
2013-01-31 04:53:00,39.4,35.3,29.90,North,0,0.0,0.0,85,0.00,,,0.00,WUHU216HW,2013-01-31 12:53:00,
2013-01-31 04:58:00,39.2,35.1,29.90,North,0,0.0,0.0,85,0.00,,,0.00,WUHU216HW,2013-01-31 12:58:00,
2013-01-31 05:03:00,39.2,35.1,29.90,North,0,0.0,0.0,85,0.00,,,0.00,WUHU216HW,2013-01-31 13:03:00,
2013-01-31 05:08:00,39.2,35.1,29.90,North,0,0.0,0.0,85,0.00,,,0.00,WUHU216HW,2013-01-31 13:08:00,
2013-01-31 05:13:00,39.1,34.9,29.90,North,0,0.0,0.0,85,0.00,,,0.00,WUHU216HW,2013-01-31 13:13:00,
2013-01-31 05:18:00,39.1,34.9,29.90,North,0,0.0,0.0,85,0.00,,,0.00,WUHU216HW,2013-01-31 13:18:00,
2013-01-31 05:24:00,38.9,34.7,29.90,North,0,0.0,0.0,85,0.00,,,0.00,WUHU216HW,2013-01-31 13:24:00,
2013-01-31 05:29:00,38.9,34.7,29.90,North,0,0.0,0.0,85,0.00,,,0.00,WUHU216HW,2013-01-31 13:29:00,
2013-01-31 05:34:00,38.7,34.6,29.91,North,0,0.0,0.0,85,0.00,,,0.00,WUHU216HW,2013-01-31 13:34:00,
2013-01-31 05:39:00,38.7,34.8,29.91,North,0,0.0,0.0,86,0.00,,,0.00,WUHU216HW,2013-01-31 13:39:00,
2013-01-31 05:44:00,38.7,34.8,29.90,North,0,0.0,0.0,86,0.00,,,0.00,WUHU216HW,2013-01-31 13:44:00,
2013-01-31 05:49:00,38.5,34.7,29.90,North,0,0.0,0.0,86,0.00,,,0.00,WUHU216HW,2013-01-31 13:49:00,
2013-01-31 05:54:00,38.5,34.7,29.90,North,0,0.0,0.0,86,0.00,,,0.00,WUHU216HW,2013-01-31 13:54:00,
2013-01-31 05:59:00,38.5,34.7,29.90,North,0,0.0,0.0,86,0.00,,,0.00,WUHU216HW,2013-01-31 13:59:00,
2013-01-31 06:04:00,38.7,34.8,29.90,North,0,0.0,0.0,86,0.00,,,0.00,WUHU216HW,2013-01-31 14:04:00,
2013-01-31 06:09:00,38.7,34.8,29.90,North,0,0.0,0.0,86,0.00,,,0.00,WUHU216HW,2013-01-31 14:09:00,
2013-01-31 06:14:00,38.7,34.8,29.90,North,0,0.0,0.0,86,0.00,,,0.00,WUHU216HW,2013-01-31 14:14:00,
2013-01-31 06:19:00,38.5,34.7,29.90,North,0,0.0,0.0,86,0.00,,,0.00,WUHU216HW,2013-01-31 14:19:00,
2013-01-31 06:25:00,38.5,34.7,29.91,North,0,0.0,0.0,86,0.00,,,0.00,WUHU216HW,2013-01-31 14:25:00,
2013-01-31 06:30:00,38.5,34.7,29.91,North,0,0.0,0.0,86,0.00,,,0.00,WUHU216HW,2013-01-31 14:30:00,
2013-01-31 06:35:00,38.3,34.5,29.91,North,0,0.0,0.0,86,0.00,,,0.00,WUHU216HW,2013-01-31 14:35:00,
2013-01-31 06:40:00,38.3,34.5,29.91,North,0,0.0,0.0,86,0.00,,,0.00,WUHU216HW,2013-01-31 14:40:00,
2013-01-31 06:45:00,38.3,34.5,29.91,North,0,0.0,0.0,86,0.00,,,0.00,WUHU216HW,2013-01-31 14:45:00,
2013-01-31 06:50:00,38.3,34.7,29.91,North,0,0.0,0.0,87,0.00,,,0.00,WUHU216HW,2013-01-31 14:50:00,
2013-01-31 06:55:00,38.3,34.7,29.91,North,0,0.0,0.0,87,0.00,,,0.00,WUHU216HW,2013-01-31 14:55:00,
2013-01-31 07:00:00,38.3,34.7,29.92,North,0,0.0,0.0,87,0.00,,,0.00,WUHU216HW,2013-01-31 15:00:00,
2013-01-31 07:05:00,38.3,34.7,29.92,North,0,0.0,0.0,87,0.00,,,0.00,WUHU216HW,2013-01-31 15:05:00,
2013-01-31 07:10:00,38.2,34.6,29.92,North,0,0.0,0.0,87,0.00,,,0.00,WUHU216HW,2013-01-31 15:10:00,
2013-01-31 07:15:00,38.3,34.7,29.92,North,0,0.0,0.0,87,0.00,,,0.00,WUHU216HW,2013-01-31 15:15:00,
2013-01-31 07:20:00,38.5,34.9,29.92,North,0,0.0,0.0,87,0.00,,,0.00,WUHU216HW,2013-01-31 15:20:00,
2013-01-31 07:25:00,38.5,34.9,29.92,North,0,0.0,0.0,87,0.00,,,0.00,WUHU216HW,2013-01-31 15:25:00,
2013-01-31 07:30:00,38.3,34.7,29.92,North,0,0.0,0.0,87,0.00,,,0.00,WUHU216HW,2013-01-31 15:30:00,
2013-01-31 07:35:00,38.2,34.6,29.93,North,0,0.0,0.0,87,0.00,,,0.00,WUHU216HW,2013-01-31 15:35:00,
2013-01-31 07:40:00,38.2,34.6,29.93,North,0,0.0,0.0,87,0.00,,,0.00,WUHU216HW,2013-01-31 15:40:00,
2013-01-31 07:45:00,38.2,34.6,29.93,North,0,0.0,0.0,87,0.00,,,0.00,WUHU216HW,2013-01-31 15:45:00,
2013-01-31 07:51:00,38.2,34.6,29.93,North,0,0.0,0.0,87,0.00,,,0.00,WUHU216HW,2013-01-31 15:51:00,
2013-01-31 07:56:00,38.3,34.7,29.93,North,0,0.0,0.0,87,0.00,,,0.00,WUHU216HW,2013-01-31 15:56:00,
2013-01-31 08:01:00,38.3,35.1,29.93,North,0,0.0,0.0,88,0.00,,,0.00,WUHU216HW,2013-01-31 16:01:00,
2013-01-31 08:06:00,38.5,35.3,29.93,North,0,0.0,0.0,88,0.00,,,0.00,WUHU216HW,2013-01-31 16:06:00,
2013-01-31 08:11:00,38.9,35.7,29.93,North,0,0.0,0.0,88,0.00,,,0.00,WUHU216HW,2013-01-31 16:11:00,
2013-01-31 08:16:00,39.4,36.5,29.93,North,0,0.0,0.0,89,0.00,,,0.00,WUHU216HW,2013-01-31 16:16:00,
2013-01-31 08:21:00,40.0,37.0,29.93,North,0,0.0,0.0,89,0.00,,,0.00,WUHU216HW,2013-01-31 16:21:00,
2013-01-31 08:26:00,40.3,37.6,29.93,North,0,0.0,0.0,90,0.00,,,0.00,WUHU216HW,2013-01-31 16:26:00,
2013-01-31 08:31:00,41.0,38.3,29.93,North,0,0.0,0.0,90,0.00,,,0.00,WUHU216HW,2013-01-31 16:31:00,
2013-01-31 08:36:00,41.6,38.9,29.93,North,0,0.0,0.0,90,0.00,,,0.00,WUHU216HW,2013-01-31 16:36:00,
2013-01-31 08:41:00,42.1,39.4,29.93,North,0,0.0,0.0,90,0.00,,,0.00,WUHU216HW,2013-01-31 16:41:00,
2013-01-31 08:47:00,42.7,39.7,29.94,North,0,0.0,0.0,89,0.00,,,0.00,WUHU216HW,2013-01-31 16:47:00,
2013-01-31 08:52:00,43.2,40.2,29.94,North,0,0.0,0.0,89,0.00,,,0.00,WUHU216HW,2013-01-31 16:52:00,
2013-01-31 08:57:00,43.9,41.0,29.94,North,0,0.0,0.0,89,0.00,,,0.00,WUHU216HW,2013-01-31 16:57:00,
2013-01-31 09:02:00,44.5,41.5,29.94,North,0,0.0,0.0,89,0.00,,,0.00,WUHU216HW,2013-01-31 17:02:00,
2013-01-31 09:07:00,45.4,42.7,29.94,North,0,0.0,0.0,90,0.00,,,0.00,WUHU216HW,2013-01-31 17:07:00,
2013-01-31 09:12:00,46.1,43.1,29.94,North,0,0.0,0.0,89,0.00,,,0.00,WUHU216HW,2013-01-31 17:12:00,
2013-01-31 09:17:00,46.8,43.5,29.94,North,0,0.0,0.0,88,0.00,,,0.00,WUHU216HW,2013-01-31 17:17:00,
2013-01-31 09:22:00,47.2,43.6,29.94,North,0,0.0,0.0,87,0.00,,,0.00,WUHU216HW,2013-01-31 17:22:00,
2013-01-31 09:27:00,47.7,44.0,29.94,North,0,0.0,0.0,87,0.00,,,0.00,WUHU216HW,2013-01-31 17:27:00,
2013-01-31 09:33:00,48.2,44.3,29.94,North,0,0.0,0.0,86,0.00,,,0.00,WUHU216HW,2013-01-31 17:33:00,
2013-01-31 09:38:00,48.6,44.3,29.94,North,0,0.0,0.0,85,0.00,,,0.00,WUHU216HW,2013-01-31 17:38:00,
2013-01-31 09:43:00,49.1,44.8,29.94,North,0,0.0,0.0,85,0.00,,,0.00,WUHU216HW,2013-01-31 17:43:00,
2013-01-31 09:48:00,49.7,45.3,29.94,North,0,0.0,0.0,85,0.00,,,0.00,WUHU216HW,2013-01-31 17:48:00,
2013-01-31 09:53:00,50.2,45.6,29.94,North,0,0.0,0.0,84,0.00,,,0.00,WUHU216HW,2013-01-31 17:53:00,
2013-01-31 09:58:00,50.8,46.1,29.93,North,0,0.0,0.0,84,0.00,,,0.00,WUHU216HW,2013-01-31 17:58:00,
2013-01-31 10:03:00,51.3,46.0,29.93,North,0,0.0,0.0,82,0.00,,,0.00,WUHU216HW,2013-01-31 18:03:00,
2013-01-31 10:08:00,51.5,46.2,29.93,North,0,0.0,0.0,82,0.00,,,0.00,WUHU216HW,2013-01-31 18:08:00,
2013-01-31 10:13:00,51.8,46.5,29.93,North,0,0.0,0.0,82,0.00,,,0.00,WUHU216HW,2013-01-31 18:13:00,
2013-01-31 10:19:00,52.4,46.7,29.93,North,0,0.0,0.0,81,0.00,,,0.00,WUHU216HW,2013-01-31 18:19:00,
2013-01-31 10:24:00,52.9,47.0,29.93,North,0,0.0,0.0,80,0.00,,,0.00,WUHU216HW,2013-01-31 18:24:00,
2013-01-31 10:29:00,53.5,47.5,29.93,North,0,0.0,0.0,80,0.00,,,0.00,WUHU216HW,2013-01-31 18:29:00,
2013-01-31 10:34:00,53.6,47.7,29.93,North,0,0.0,0.0,80,0.00,,,0.00,WUHU216HW,2013-01-31 18:34:00,
2013-01-31 10:39:00,54.4,48.0,29.93,North,0,0.0,0.0,79,0.00,,,0.00,WUHU216HW,2013-01-31 18:39:00,
2013-01-31 10:44:00,54.7,48.3,29.93,North,0,0.0,0.0,79,0.00,,,0.00,WUHU216HW,2013-01-31 18:44:00,
2013-01-31 10:49:00,55.1,48.3,29.93,North,0,0.0,0.0,78,0.00,,,0.00,WUHU216HW,2013-01-31 18:49:00,
2013-01-31 10:54:00,55.4,48.3,29.93,North,0,0.0,0.0,77,0.00,,,0.00,WUHU216HW,2013-01-31 18:54:00,
2013-01-31 10:59:00,55.4,48.3,29.92,North,0,0.0,0.0,77,0.00,,,0.00,WUHU216HW,2013-01-31 18:59:00,
2013-01-31 11:04:00,56.2,48.6,29.92,North,0,0.0,0.0,76,0.00,,,0.00,WUHU216HW,2013-01-31 19:04:00,
2013-01-31 11:09:00,56.9,49.3,29.92,North,0,0.0,0.0,76,0.00,,,0.00,WUHU216HW,2013-01-31 19:09:00,
2013-01-31 11:14:00,57.2,49.0,29.91,North,0,0.0,0.0,74,0.00,,,0.00,WUHU216HW,2013-01-31 19:14:00,
2013-01-31 11:20:00,57.8,49.5,29.91,North,0,0.0,0.0,74,0.00,,,0.00,WUHU216HW,2013-01-31 19:20:00,
2013-01-31 11:25:00,58.1,49.5,29.91,North,0,0.0,0.0,73,0.00,,,0.00,WUHU216HW,2013-01-31 19:25:00,
2013-01-31 11:30:00,58.3,49.3,29.91,North,0,0.0,0.0,72,0.00,,,0.00,WUHU216HW,2013-01-31 19:30:00,
2013-01-31 11:35:00,58.5,49.1,29.91,North,0,0.0,0.0,71,0.00,,,0.00,WUHU216HW,2013-01-31 19:35:00,
2013-01-31 11:40:00,58.7,49.7,29.90,North,0,0.0,0.0,72,0.00,,,0.00,WUHU216HW,2013-01-31 19:40:00,
2013-01-31 11:45:00,59.2,49.9,29.90,North,0,0.0,0.0,71,0.00,,,0.00,WUHU216HW,2013-01-31 19:45:00,
2013-01-31 11:50:00,59.6,49.9,29.90,North,0,0.0,0.0,70,0.00,,,0.00,WUHU216HW,2013-01-31 19:50:00,
2013-01-31 11:55:00,59.8,49.2,29.89,North,0,0.0,0.0,68,0.00,,,0.00,WUHU216HW,2013-01-31 19:55:00,
2013-01-31 12:00:00,60.1,49.6,29.89,North,0,0.0,0.0,68,0.00,,,0.00,WUHU216HW,2013-01-31 20:00:00,
2013-01-31 12:05:00,60.1,49.6,29.89,North,0,0.0,0.0,68,0.00,,,0.00,WUHU216HW,2013-01-31 20:05:00,
2013-01-31 12:10:00,60.5,49.5,29.89,North,0,0.0,0.0,67,0.00,,,0.00,WUHU216HW,2013-01-31 20:10:00,
2013-01-31 12:15:00,60.8,49.9,29.88,North,0,0.0,0.0,67,0.00,,,0.00,WUHU216HW,2013-01-31 20:15:00,
2013-01-31 12:20:00,61.2,50.6,29.88,North,0,0.0,0.0,68,0.00,,,0.00,WUHU216HW,2013-01-31 20:20:00,
2013-01-31 12:26:00,61.6,50.9,29.88,North,0,0.0,0.0,68,0.00,,,0.00,WUHU216HW,2013-01-31 20:26:00,
2013-01-31 12:31:00,61.9,50.9,29.88,North,0,0.0,0.0,67,0.00,,,0.00,WUHU216HW,2013-01-31 20:31:00,
2013-01-31 12:36:00,61.9,50.9,29.87,North,0,0.0,0.0,67,0.00,,,0.00,WUHU216HW,2013-01-31 20:36:00,
2013-01-31 12:41:00,62.3,50.8,29.87,North,0,0.0,0.0,66,0.00,,,0.00,WUHU216HW,2013-01-31 20:41:00,
2013-01-31 12:46:00,62.3,50.3,29.87,North,0,0.0,0.0,65,0.00,,,0.00,WUHU216HW,2013-01-31 20:46:00,
2013-01-31 12:51:00,62.3,50.3,29.87,North,0,0.0,0.0,65,0.00,,,0.00,WUHU216HW,2013-01-31 20:51:00,
2013-01-31 12:56:00,62.5,50.5,29.86,North,0,0.0,0.0,65,0.00,,,0.00,WUHU216HW,2013-01-31 20:56:00,
2013-01-31 13:01:00,62.6,50.7,29.86,North,0,0.0,0.0,65,0.00,,,0.00,WUHU216HW,2013-01-31 21:01:00,
2013-01-31 13:06:00,62.6,50.2,29.86,North,0,0.0,0.0,64,0.00,,,0.00,WUHU216HW,2013-01-31 21:06:00,
2013-01-31 13:11:00,63.0,50.6,29.86,North,0,0.0,0.0,64,0.00,,,0.00,WUHU216HW,2013-01-31 21:11:00,
2013-01-31 13:16:00,63.0,50.2,29.86,North,0,0.0,0.0,63,0.00,,,0.00,WUHU216HW,2013-01-31 21:16:00,
2013-01-31 13:21:00,63.2,50.3,29.86,North,0,0.0,0.0,63,0.00,,,0.00,WUHU216HW,2013-01-31 21:21:00,
2013-01-31 13:26:00,63.5,50.2,29.85,North,0,0.0,0.0,62,0.00,,,0.00,WUHU216HW,2013-01-31 21:26:00,
2013-01-31 13:31:00,63.5,50.7,29.85,North,0,0.0,0.0,63,0.00,,,0.00,WUHU216HW,2013-01-31 21:31:00,
2013-01-31 13:37:00,63.9,50.6,29.85,North,0,0.0,0.0,62,0.00,,,0.00,WUHU216HW,2013-01-31 21:37:00,
2013-01-31 13:42:00,64.1,50.8,29.85,North,0,0.0,0.0,62,0.00,,,0.00,WUHU216HW,2013-01-31 21:42:00,
2013-01-31 13:47:00,64.3,51.0,29.85,North,0,0.0,0.0,62,0.00,,,0.00,WUHU216HW,2013-01-31 21:47:00,
2013-01-31 13:52:00,64.3,50.5,29.85,North,0,0.0,0.0,61,0.00,,,0.00,WUHU216HW,2013-01-31 21:52:00,
2013-01-31 13:57:00,64.3,50.5,29.84,North,0,0.0,0.0,61,0.00,,,0.00,WUHU216HW,2013-01-31 21:57:00,
2013-01-31 14:02:00,64.3,51.0,29.84,North,0,0.0,0.0,62,0.00,,,0.00,WUHU216HW,2013-01-31 22:02:00,
2013-01-31 14:07:00,64.3,50.5,29.84,North,0,0.0,0.0,61,0.00,,,0.00,WUHU216HW,2013-01-31 22:07:00,
2013-01-31 14:12:00,64.3,50.0,29.84,North,0,0.0,0.0,60,0.00,,,0.00,WUHU216HW,2013-01-31 22:12:00,
2013-01-31 14:17:00,64.3,50.5,29.84,North,0,0.0,0.0,61,0.00,,,0.00,WUHU216HW,2013-01-31 22:17:00,
2013-01-31 14:22:00,64.3,50.0,29.84,North,0,0.0,0.0,60,0.00,,,0.00,WUHU216HW,2013-01-31 22:22:00,
2013-01-31 14:27:00,64.4,50.2,29.84,North,0,0.0,0.0,60,0.00,,,0.00,WUHU216HW,2013-01-31 22:27:00,
2013-01-31 14:32:00,64.3,50.0,29.83,North,0,0.0,0.0,60,0.00,,,0.00,WUHU216HW,2013-01-31 22:32:00,
2013-01-31 14:37:00,64.3,50.0,29.84,North,0,0.0,0.0,60,0.00,,,0.00,WUHU216HW,2013-01-31 22:37:00,
2013-01-31 14:42:00,64.3,50.0,29.84,North,0,0.0,0.0,60,0.00,,,0.00,WUHU216HW,2013-01-31 22:42:00,
2013-01-31 14:47:00,64.3,50.5,29.83,North,0,0.0,0.0,61,0.00,,,0.00,WUHU216HW,2013-01-31 22:47:00,
2013-01-31 14:52:00,64.3,50.0,29.83,North,0,0.0,0.0,60,0.00,,,0.00,WUHU216HW,2013-01-31 22:52:00,
2013-01-31 14:58:00,64.4,50.2,29.83,North,0,0.0,0.0,60,0.00,,,0.00,WUHU216HW,2013-01-31 22:58:00,
2013-01-31 15:03:00,64.3,50.0,29.83,North,0,0.0,0.0,60,0.00,,,0.00,WUHU216HW,2013-01-31 23:03:00,
2013-01-31 15:08:00,64.1,49.9,29.83,North,0,0.0,0.0,60,0.00,,,0.00,WUHU216HW,2013-01-31 23:08:00,
2013-01-31 15:13:00,64.1,50.3,29.83,North,0,0.0,0.0,61,0.00,,,0.00,WUHU216HW,2013-01-31 23:13:00,
2013-01-31 15:18:00,63.9,49.8,29.83,North,0,0.0,0.0,60,0.00,,,0.00,WUHU216HW,2013-01-31 23:18:00,
2013-01-31 15:23:00,63.9,49.8,29.83,North,0,0.0,0.0,60,0.00,,,0.00,WUHU216HW,2013-01-31 23:23:00,
2013-01-31 15:28:00,63.9,50.1,29.83,North,0,0.0,0.0,61,0.00,,,0.00,WUHU216HW,2013-01-31 23:28:00,
2013-01-31 15:33:00,63.7,49.6,29.83,North,0,0.0,0.0,60,0.00,,,0.00,WUHU216HW,2013-01-31 23:33:00,
2013-01-31 15:38:00,63.7,49.6,29.83,North,0,0.0,0.0,60,0.00,,,0.00,WUHU216HW,2013-01-31 23:38:00,
2013-01-31 15:43:00,63.7,49.6,29.83,North,0,0.0,0.0,60,0.00,,,0.00,WUHU216HW,2013-01-31 23:43:00,
2013-01-31 15:48:00,63.7,49.6,29.83,North,0,0.0,0.0,60,0.00,,,0.00,WUHU216HW,2013-01-31 23:48:00,
2013-01-31 15:53:00,63.7,49.6,29.82,North,0,0.0,0.0,60,0.00,,,0.00,WUHU216HW,2013-01-31 23:53:00,
2013-01-31 15:58:00,63.5,49.4,29.82,North,0,0.0,0.0,60,0.00,,,0.00,WUHU216HW,2013-01-31 23:58:00,
2013-01-31 16:04:00,63.5,49.9,29.82,North,0,0.0,0.0,61,0.00,,,0.00,WUHU216HW,2013-02-01 00:04:00,
2013-01-31 16:09:00,63.5,49.4,29.82,North,0,0.0,0.0,60,0.00,,,0.00,WUHU216HW,2013-02-01 00:09:00,
2013-01-31 16:14:00,63.4,49.7,29.82,North,0,0.0,0.0,61,0.00,,,0.00,WUHU216HW,2013-02-01 00:14:00,
2013-01-31 16:19:00,63.4,49.7,29.82,North,0,0.0,0.0,61,0.00,,,0.00,WUHU216HW,2013-02-01 00:19:00,
2013-01-31 16:24:00,63.0,49.3,29.82,North,0,0.0,0.0,61,0.00,,,0.00,WUHU216HW,2013-02-01 00:24:00,
2013-01-31 16:29:00,63.0,49.3,29.82,North,0,0.0,0.0,61,0.00,,,0.00,WUHU216HW,2013-02-01 00:29:00,
2013-01-31 16:34:00,62.6,49.4,29.82,North,0,0.0,0.0,62,0.00,,,0.00,WUHU216HW,2013-02-01 00:34:00,
2013-01-31 16:39:00,62.5,49.2,29.82,North,0,0.0,0.0,62,0.00,,,0.00,WUHU216HW,2013-02-01 00:39:00,
2013-01-31 16:44:00,62.5,49.2,29.82,North,0,0.0,0.0,62,0.00,,,0.00,WUHU216HW,2013-02-01 00:44:00,
2013-01-31 16:49:00,62.3,49.2,29.82,North,0,0.0,0.0,62,0.00,,,0.00,WUHU216HW,2013-02-01 00:49:00,
2013-01-31 16:54:00,62.1,49.0,29.82,North,0,0.0,0.0,62,0.00,,,0.00,WUHU216HW,2013-02-01 00:54:00,
2013-01-31 17:00:00,61.9,48.8,29.82,North,0,0.0,0.0,62,0.00,,,0.00,WUHU216HW,2013-02-01 01:00:00,
2013-01-31 17:05:00,61.7,49.1,29.82,North,0,0.0,0.0,63,0.00,,,0.00,WUHU216HW,2013-02-01 01:05:00,
2013-01-31 17:10:00,61.6,48.9,29.82,North,0,0.0,0.0,63,0.00,,,0.00,WUHU216HW,2013-02-01 01:10:00,
2013-01-31 17:15:00,61.4,48.7,29.82,North,0,0.0,0.0,63,0.00,,,0.00,WUHU216HW,2013-02-01 01:15:00,
2013-01-31 17:20:00,61.0,48.8,29.82,North,0,0.0,0.0,64,0.00,,,0.00,WUHU216HW,2013-02-01 01:20:00,
2013-01-31 17:25:00,60.8,48.6,29.82,North,0,0.0,0.0,64,0.00,,,0.00,WUHU216HW,2013-02-01 01:25:00,
2013-01-31 17:30:00,60.7,48.4,29.82,North,0,0.0,0.0,64,0.00,,,0.00,WUHU216HW,2013-02-01 01:30:00,
2013-01-31 17:35:00,60.3,48.1,29.82,North,0,0.0,0.0,64,0.00,,,0.00,WUHU216HW,2013-02-01 01:35:00,
2013-01-31 17:40:00,59.9,47.4,29.82,North,0,0.0,0.0,63,0.00,,,0.00,WUHU216HW,2013-02-01 01:40:00,
2013-01-31 17:45:00,59.4,46.8,29.82,North,0,0.0,0.0,63,0.00,,,0.00,WUHU216HW,2013-02-01 01:45:00,
2013-01-31 17:50:00,58.9,46.7,29.82,North,0,0.0,0.0,64,0.00,,,0.00,WUHU216HW,2013-02-01 01:50:00,
2013-01-31 17:55:00,58.5,46.4,29.82,North,0,0.0,0.0,64,0.00,,,0.00,WUHU216HW,2013-02-01 01:55:00,
2013-01-31 18:00:00,58.0,45.8,29.82,North,0,0.0,0.0,64,0.00,,,0.00,WUHU216HW,2013-02-01 02:00:00,
2013-01-31 18:05:00,57.6,45.9,29.82,North,0,0.0,0.0,65,0.00,,,0.00,WUHU216HW,2013-02-01 02:05:00,
2013-01-31 18:10:00,57.2,45.5,29.82,North,0,0.0,0.0,65,0.00,,,0.00,WUHU216HW,2013-02-01 02:10:00,
2013-01-31 18:16:00,56.9,45.6,29.82,North,0,0.0,0.0,66,0.00,,,0.00,WUHU216HW,2013-02-01 02:16:00,
2013-01-31 18:21:00,56.5,45.3,29.82,North,0,0.0,0.0,66,0.00,,,0.00,WUHU216HW,2013-02-01 02:21:00,
2013-01-31 18:26:00,56.2,45.4,29.82,North,0,0.0,0.0,67,0.00,,,0.00,WUHU216HW,2013-02-01 02:26:00,
2013-01-31 18:31:00,55.8,45.0,29.82,North,0,0.0,0.0,67,0.00,,,0.00,WUHU216HW,2013-02-01 02:31:00,
2013-01-31 18:36:00,55.6,44.8,29.82,North,0,0.0,0.0,67,0.00,,,0.00,WUHU216HW,2013-02-01 02:36:00,
2013-01-31 18:41:00,55.3,44.9,29.82,North,0,0.0,0.0,68,0.00,,,0.00,WUHU216HW,2013-02-01 02:41:00,
2013-01-31 18:46:00,55.1,44.7,29.82,North,0,0.0,0.0,68,0.00,,,0.00,WUHU216HW,2013-02-01 02:46:00,
2013-01-31 18:51:00,54.7,44.4,29.82,North,0,0.0,0.0,68,0.00,,,0.00,WUHU216HW,2013-02-01 02:51:00,
2013-01-31 18:56:00,54.4,44.5,29.82,North,0,0.0,0.0,69,0.00,,,0.00,WUHU216HW,2013-02-01 02:56:00,
2013-01-31 19:01:00,54.0,44.1,29.82,North,0,0.0,0.0,69,0.00,,,0.00,WUHU216HW,2013-02-01 03:01:00,
2013-01-31 19:06:00,53.8,43.9,29.82,North,0,0.0,0.0,69,0.00,,,0.00,WUHU216HW,2013-02-01 03:06:00,
2013-01-31 19:11:00,53.5,43.6,29.82,North,0,0.0,0.0,69,0.00,,,0.00,WUHU216HW,2013-02-01 03:11:00,
2013-01-31 19:17:00,53.1,43.7,29.82,North,0,0.0,0.0,70,0.00,,,0.00,WUHU216HW,2013-02-01 03:17:00,
2013-01-31 19:22:00,52.9,43.5,29.82,North,0,0.0,0.0,70,0.00,,,0.00,WUHU216HW,2013-02-01 03:22:00,
2013-01-31 19:27:00,52.6,43.5,29.82,North,0,0.0,0.0,71,0.00,,,0.00,WUHU216HW,2013-02-01 03:27:00,
2013-01-31 19:32:00,52.4,43.3,29.82,North,0,0.0,0.0,71,0.00,,,0.00,WUHU216HW,2013-02-01 03:32:00,
2013-01-31 19:37:00,52.2,43.5,29.82,North,0,0.0,0.0,72,0.00,,,0.00,WUHU216HW,2013-02-01 03:37:00,
2013-01-31 19:42:00,51.8,42.9,29.82,North,0,0.0,0.0,71,0.00,,,0.00,WUHU216HW,2013-02-01 03:42:00,
2013-01-31 19:47:00,51.7,43.0,29.82,North,0,0.0,0.0,72,0.00,,,0.00,WUHU216HW,2013-02-01 03:47:00,
2013-01-31 19:53:00,51.5,42.9,29.82,North,0,0.0,0.0,72,0.00,,,0.00,WUHU216HW,2013-02-01 03:53:00,
2013-01-31 19:58:00,51.5,42.9,29.82,North,0,0.0,0.0,72,0.00,,,0.00,WUHU216HW,2013-02-01 03:58:00,
2013-01-31 20:03:00,51.3,42.7,29.82,North,0,0.0,0.0,72,0.00,,,0.00,WUHU216HW,2013-02-01 04:03:00,
2013-01-31 20:08:00,50.9,42.3,29.82,North,0,0.0,0.0,72,0.00,,,0.00,WUHU216HW,2013-02-01 04:08:00,
2013-01-31 20:13:00,50.8,42.1,29.82,North,0,0.0,0.0,72,0.00,,,0.00,WUHU216HW,2013-02-01 04:13:00,
2013-01-31 20:18:00,50.4,42.0,29.82,North,0,0.0,0.0,73,0.00,,,0.00,WUHU216HW,2013-02-01 04:18:00,
2013-01-31 20:23:00,50.2,41.9,29.82,North,0,0.0,0.0,73,0.00,,,0.00,WUHU216HW,2013-02-01 04:23:00,
2013-01-31 20:28:00,50.0,42.0,29.82,North,0,0.0,0.0,74,0.00,,,0.00,WUHU216HW,2013-02-01 04:28:00,
2013-01-31 20:33:00,49.7,41.7,29.82,North,0,0.0,0.0,74,0.00,,,0.00,WUHU216HW,2013-02-01 04:33:00,
2013-01-31 20:38:00,49.5,41.5,29.82,North,0,0.0,0.0,74,0.00,,,0.00,WUHU216HW,2013-02-01 04:38:00,
2013-01-31 20:43:00,49.3,41.3,29.82,North,0,0.0,0.0,74,0.00,,,0.00,WUHU216HW,2013-02-01 04:43:00,
2013-01-31 20:48:00,49.1,41.5,29.82,North,0,0.0,0.0,75,0.00,,,0.00,WUHU216HW,2013-02-01 04:48:00,
2013-01-31 20:53:00,49.0,41.3,29.82,North,0,0.0,0.0,75,0.00,,,0.00,WUHU216HW,2013-02-01 04:53:00,
2013-01-31 20:58:00,48.8,41.1,29.82,North,0,0.0,0.0,75,0.00,,,0.00,WUHU216HW,2013-02-01 04:58:00,
2013-01-31 21:00:00,48.8,41.1,29.82,North,0,0.0,0.0,75,0.00,,,0.00,WUHU216HW,2013-02-01 05:00:00,
2013-01-31 21:01:00,48.8,41.1,29.82,North,0,0.0,0.0,75,0.00,,,0.00,WUHU216HW,2013-02-01 05:01:00,
2013-01-31 21:02:00,48.6,41.3,29.82,North,0,0.0,0.0,76,0.00,,,0.00,WUHU216HW,2013-02-01 05:02:00,
2013-01-31 21:07:00,48.6,41.3,29.82,North,0,0.0,0.0,76,0.00,,,0.00,WUHU216HW,2013-02-01 05:07:00,
2013-01-31 21:12:00,48.6,41.7,29.82,North,0,0.0,0.0,77,0.00,,,0.00,WUHU216HW,2013-02-01 05:12:00,
2013-01-31 21:17:00,48.6,41.7,29.82,North,0,0.0,0.0,77,0.00,,,0.00,WUHU216HW,2013-02-01 05:17:00,
2013-01-31 21:22:00,48.4,41.5,29.82,North,0,0.0,0.0,77,0.00,,,0.00,WUHU216HW,2013-02-01 05:22:00,
2013-01-31 21:27:00,48.2,41.3,29.82,North,0,0.0,0.0,77,0.00,,,0.00,WUHU216HW,2013-02-01 05:27:00,
2013-01-31 21:32:00,48.1,41.1,29.82,North,0,0.0,0.0,77,0.00,,,0.00,WUHU216HW,2013-02-01 05:32:00,
2013-01-31 21:38:00,47.9,41.0,29.82,North,0,0.0,0.0,77,0.00,,,0.00,WUHU216HW,2013-02-01 05:38:00,
2013-01-31 21:43:00,47.7,40.8,29.82,North,0,0.0,0.0,77,0.00,,,0.00,WUHU216HW,2013-02-01 05:43:00,
2013-01-31 21:48:00,47.5,41.0,29.82,North,0,0.0,0.0,78,0.00,,,0.00,WUHU216HW,2013-02-01 05:48:00,
2013-01-31 21:53:00,47.5,41.0,29.82,North,0,0.0,0.0,78,0.00,,,0.00,WUHU216HW,2013-02-01 05:53:00,
2013-01-31 21:58:00,47.3,40.8,29.82,North,0,0.0,0.0,78,0.00,,,0.00,WUHU216HW,2013-02-01 05:58:00,
2013-01-31 22:03:00,47.2,40.7,29.82,North,0,0.0,0.0,78,0.00,,,0.00,WUHU216HW,2013-02-01 06:03:00,
2013-01-31 22:08:00,47.2,40.7,29.82,North,0,0.0,0.0,78,0.00,,,0.00,WUHU216HW,2013-02-01 06:08:00,
2013-01-31 22:13:00,47.0,40.9,29.82,North,0,0.0,0.0,79,0.00,,,0.00,WUHU216HW,2013-02-01 06:13:00,
2013-01-31 22:18:00,47.0,40.5,29.82,North,0,0.0,0.0,78,0.00,,,0.00,WUHU216HW,2013-02-01 06:18:00,
2013-01-31 22:23:00,47.0,40.5,29.82,North,0,0.0,0.0,78,0.00,,,0.00,WUHU216HW,2013-02-01 06:23:00,
2013-01-31 22:28:00,47.0,40.5,29.82,North,0,0.0,0.0,78,0.00,,,0.00,WUHU216HW,2013-02-01 06:28:00,
2013-01-31 22:34:00,46.8,40.3,29.82,North,0,0.0,0.0,78,0.00,,,0.00,WUHU216HW,2013-02-01 06:34:00,
2013-01-31 22:39:00,46.6,40.1,29.82,North,0,0.0,0.0,78,0.00,,,0.00,WUHU216HW,2013-02-01 06:39:00,
2013-01-31 22:44:00,46.4,40.3,29.82,North,0,0.0,0.0,79,0.00,,,0.00,WUHU216HW,2013-02-01 06:44:00,
2013-01-31 22:49:00,46.3,40.1,29.82,North,0,0.0,0.0,79,0.00,,,0.00,WUHU216HW,2013-02-01 06:49:00,
2013-01-31 22:54:00,46.1,40.3,29.82,North,0,0.0,0.0,80,0.00,,,0.00,WUHU216HW,2013-02-01 06:54:00,
2013-01-31 22:59:00,45.9,40.1,29.83,North,0,0.0,0.0,80,0.00,,,0.00,WUHU216HW,2013-02-01 06:59:00,
2013-01-31 23:04:00,45.9,40.1,29.83,North,0,0.0,0.0,80,0.00,,,0.00,WUHU216HW,2013-02-01 07:04:00,
2013-01-31 23:09:00,45.7,40.0,29.82,North,0,0.0,0.0,80,0.00,,,0.00,WUHU216HW,2013-02-01 07:09:00,
2013-01-31 23:14:00,45.7,40.2,29.82,North,0,0.0,0.0,81,0.00,,,0.00,WUHU216HW,2013-02-01 07:14:00,
2013-01-31 23:19:00,45.7,40.2,29.82,North,0,0.0,0.0,81,0.00,,,0.00,WUHU216HW,2013-02-01 07:19:00,
2013-01-31 23:24:00,45.5,40.1,29.82,North,0,0.0,0.0,81,0.00,,,0.00,WUHU216HW,2013-02-01 07:24:00,
2013-01-31 23:30:00,45.4,39.9,29.82,North,0,0.0,0.0,81,0.00,,,0.00,WUHU216HW,2013-02-01 07:30:00,
2013-01-31 23:35:00,45.4,39.9,29.82,North,0,0.0,0.0,81,0.00,,,0.00,WUHU216HW,2013-02-01 07:35:00,
2013-01-31 23:40:00,45.2,39.7,29.82,North,0,0.0,0.0,81,0.00,,,0.00,WUHU216HW,2013-02-01 07:40:00,
2013-01-31 23:45:00,45.2,40.1,29.82,North,0,0.0,0.0,82,0.00,,,0.00,WUHU216HW,2013-02-01 07:45:00,
2013-01-31 23:50:00,45.0,39.9,29.82,North,0,0.0,0.0,82,0.00,,,0.00,WUHU216HW,2013-02-01 07:50:00,
2013-01-31 23:55:00,45.0,39.9,29.82,North,0,0.0,0.0,82,0.00,,,0.00,WUHU216HW,2013-02-01 07:55:00,